Weather History for Kingsville NAS, TX

Change the Weather History Date:

Sunday, December 22, 2013

  Actual Average Record
Temperature  
Mean Temperature 64 °F -  
Max Temperature 77 °F 65 °F 83 °F (2010)
Min Temperature 48 °F 44 °F 33 °F (1998)
Degree Days  
Heating Degree Days 2    
Growing Degree Days 14 (Base 50)    
Moisture  
Dew Point 45 °F    
Average Humidity 61    
Maximum Humidity 96    
Minimum Humidity 24    
Precipitation  
Precipitation 0.00 in - - ()
Sea Level Pressure  
Sea Level Pressure 30.03 in    
Wind  
Wind Speed 9 mph (North)    
Max Wind Speed 18 mph    
Max Gust Speed 25 mph    
Visibility 10 miles    
Events      
Averages and records for this station are not official NWS values.
T = Trace of Precipitation, MM = Missing Value Source: NWS Daily Summary

Daily Weather History Graph

Daily Weather History Graph

Search for Another Location

Airport:

Trip Planner

Search our weather history database for the weather conditions in past years. The results will help you decide how hot, cold, wet, or windy it might be!

Date:

Astronomy

Dec. 22, 2013 Rise Set
Actual Time 7:17 AM CST 5:42 PM CST
Civil Twilight 6:52 AM CST 6:07 PM CST
Nautical Twilight 6:23 AM CST 6:37 PM CST
Astronomical Twilight 5:54 AM CST 7:05 PM CST
Moon 10:31 PM CST 10:37 AM CST
Length of Visible Light 11h 15m
Length of Day
10h 24m
Waning Gibbous, 76% of the Moon is Illuminated
Dec 22
Waning Gibbous
Dec 25
Last Quarter
Jan 1
New
Jan 7
First Quarter
Jan 15
Full

Hourly Weather History & Observations

Time (CST) Temp. Dew Point Humidity Pressure Visibility Wind Dir Wind Speed Gust Speed Precip Events Conditions
12:56 AM 57.0 °F 55.0 °F 93% 29.80 in - NNW 5.8 mph - N/A   Clear
1:56 AM 55.9 °F 54.0 °F 93% 29.81 in 10.0 mi Variable 5.8 mph - N/A   Partly Cloudy
2:56 AM 55.9 °F 54.0 °F 93% 29.82 in 8.0 mi North 5.8 mph - N/A   Mostly Cloudy
3:56 AM 57.0 °F 53.1 °F 87% 29.83 in 10.0 mi North 8.1 mph - N/A   Clear
4:56 AM 55.9 °F 52.0 °F 87% 29.84 in 10.0 mi NNE 6.9 mph - N/A   Clear
5:56 AM 53.1 °F 51.1 °F 93% 29.87 in 10.0 mi ENE 3.5 mph - N/A   Clear
6:56 AM 50.0 °F 48.9 °F 96% 29.91 in 10.0 mi North 3.5 mph - N/A   Scattered Clouds
7:56 AM 51.1 °F 48.9 °F 92% 29.96 in 10.0 mi NNW 8.1 mph - N/A   Clear
8:56 AM 57.9 °F 53.1 °F 84% 30.01 in 10.0 mi NW 5.8 mph - N/A   Clear
9:56 AM 68.0 °F 51.1 °F 55% 30.04 in 10.0 mi North 6.9 mph - N/A   Clear
10:56 AM 73.0 °F 45.0 °F 37% 30.04 in 10.0 mi North 13.8 mph 23.0 mph N/A   Clear
11:56 AM 75.9 °F 39.0 °F 26% 30.04 in 10.0 mi North 15.0 mph 21.9 mph N/A   Clear
12:56 PM 77.0 °F 39.0 °F 25% 30.02 in 10.0 mi North 16.1 mph 23.0 mph N/A   Partly Cloudy
1:56 PM 75.9 °F 39.9 °F 27% 30.01 in 10.0 mi North 9.2 mph - N/A   Partly Cloudy
2:56 PM 77.0 °F 37.9 °F 24% 30.01 in 10.0 mi North 18.4 mph - N/A   Scattered Clouds
3:56 PM 75.9 °F 39.0 °F 26% 30.02 in 10.0 mi North 11.5 mph 21.9 mph N/A   Scattered Clouds
4:56 PM 73.0 °F 39.0 °F 29% 30.05 in 10.0 mi North 10.4 mph - N/A   Scattered Clouds
5:56 PM 64.9 °F 44.1 °F 47% 30.09 in 10.0 mi North 15.0 mph 24.2 mph N/A   Scattered Clouds
6:56 PM 61.0 °F 44.1 °F 54% 30.14 in 10.0 mi NNE 12.7 mph - N/A   Partly Cloudy
7:56 PM 59.0 °F 43.0 °F 55% 30.19 in 10.0 mi NNE 18.4 mph 24.2 mph N/A   Partly Cloudy
8:56 PM 55.9 °F 41.0 °F 57% 30.25 in 10.0 mi NNE 12.7 mph 25.3 mph N/A   Clear
9:56 PM 53.1 °F 39.9 °F 61% 30.29 in 10.0 mi NE 15.0 mph 23.0 mph N/A   Clear
10:56 PM 50.0 °F 39.0 °F 66% 30.32 in 10.0 mi NNE 11.5 mph - N/A   Clear
11:56 PM 48.9 °F 37.9 °F 66% 30.34 in 10.0 mi NNE 11.5 mph - N/A   Clear